Date,TemperatureHighF,TemperatureAvgF,TemperatureLowF,DewpointHighF,DewpointAvgF,DewpointLowF,HumidityHigh,HumidityAvg,HumidityLow,PressureMaxIn,PressureMinIn,WindSpeedMaxMPH,WindSpeedAvgMPH,GustSpeedMaxMPH,PrecipitationSumIn
2013-1-1,41,34,28,33,25,17,94,72,51,30.48,30.36,2,0,4,0.00
2013-1-2,42,36,31,22,18,16,59,49,43,30.39,30.21,4,1,6,0.00
2013-1-3,40,36,32,24,17,15,59,48,41,30.30,30.15,3,0,6,0.00
2013-1-4,43,38,34,41,34,24,97,86,59,30.39,30.18,1,0,2,0.00
2013-1-5,38,36,34,34,31,25,97,84,63,30.24,30.18,3,0,3,0.00
2013-1-6,43,38,34,42,36,31,98,94,87,30.27,30.09,4,0,6,0.00
2013-1-7,52,47,43,50,45,42,98,94,81,30.21,30.01,7,2,12,0.00
2013-1-8,53,50,44,50,46,40,98,87,63,30.21,29.89,8,2,13,0.00
2013-1-9,52,42,34,45,37,32,94,83,64,30.04,29.71,6,1,8,0.00
2013-1-10,39,35,31,37,34,30,98,95,92,30.12,30.01,2,0,2,0.00
2013-1-11,37,31,27,35,28,22,98,89,67,30.33,30.12,3,0,3,0.00
2013-1-12,32,27,25,30,26,23,96,92,88,30.45,30.30,2,0,2,0.00
2013-1-13,30,27,25,26,24,23,96,91,84,30.54,30.42,2,0,2,0.00
2013-1-14,32,29,27,31,26,23,97,88,84,30.60,30.48,3,0,3,0.00
2013-1-15,37,34,32,36,32,31,98,95,89,30.69,30.54,2,0,3,0.00
2013-1-16,34,33,32,33,31,30,97,94,90,30.66,30.51,2,0,2,0.00
2013-1-17,41,33,29,35,31,26,98,91,76,30.51,30.30,2,0,3,0.00
2013-1-18,40,30,26,36,28,24,98,91,79,30.36,30.27,2,0,2,0.00
2013-1-19,38,30,26,38,29,25,98,96,93,30.39,30.27,1,0,1,0.00
2013-1-20,41,31,25,34,27,22,98,88,70,30.39,30.24,0,0,0,0.00
2013-1-21,42,30,22,32,24,20,95,80,52,30.30,30.18,2,0,3,0.00
2013-1-22,36,30,22,30,23,19,91,78,59,30.18,29.95,3,0,3,0.00
2013-1-23,35,33,32,32,27,22,96,78,60,30.21,29.92,3,0,3,0.00
2013-1-24,39,36,33,39,36,32,98,98,96,30.27,30.12,1,0,2,0.00
2013-1-25,48,42,39,48,41,30,98,95,75,30.15,29.89,0,0,0,0.00
2013-1-26,45,41,37,42,38,35,98,92,77,30.12,29.95,4,0,6,0.17
2013-1-27,42,39,37,40,38,35,97,95,91,30.18,30.06,4,0,6,0.03
2013-1-28,44,41,38,43,40,37,98,97,94,30.24,30.09,3,0,6,0.30
2013-1-29,44,42,42,43,42,41,98,98,98,30.36,30.18,0,0,0,0.00
2013-1-31,50,49,48,46,45,42,92,88,84,30.45,30.33,0,0,0,0.00